(466130) = 2012 FZ23

Discovered at Siding Spring on 2012-03-23 by Siding Spring Survey.

Orbit

Orbit type: Apollo
Potentially Hazardous Asteroid

Note: WebGL enabled browser required.

epoch2022-01-21.0
epoch JD2459600.5
perihelion date2020-02-03.84494
perihelion JD2458883.34494
argument of perihelion (°)357.84279
ascending node (°)179.33854
inclination (°)75.50436
eccentricity0.6078338
perihelion distance (AU)0.9764109
Tisserand w.r.t. Jupiter2.4
ΔV w.r.t. Earth (km/sec)24.6
semimajor axis (AU)2.4897885
mean anomaly (°)179.91743
mean daily motion (°/day)0.25087660
aphelion distance (AU)4.003
period (years)3.93
P-vector [x]-0.99911595
P-vector [y]0.03372434
P-vector [z]-0.02509960
Q-vector [x]-0.04052653
Q-vector [y]-0.61391650
Q-vector [z]0.78832996
absolute magnitude18.25
phase slope0.15
uncertainty0
referenceMPO 700284
observations used253
oppositions5
arc length (days)3070
first opposition used2012
last opposition used2020
residual rms (arc-secs)0.59
perturbers coarse indicatorM-v
perturbers precise indicator003Ek
first observation date used2012-03-23.0
last observation date used2020-08-18.0
computer namePan
Minimum Orbit Intersection Distances (in AU)
for orbit epoch: 2459200.5, reference: E2021-B25
Mercury0.58459
Venus0.25728
Earth0.02039
Mars0.67366
Jupiter0.96317
Saturn5.55021
Uranus16.0663
Neptune25.9055

Observations

260 total observations over interval: 2012 03 23.445414 – 2020 08 18.31934
These data are available for download (format description).

Date (UT) J2000 RA J2000 Dec Magn Location Ref
2012 03 23.445414 05 14 36.98 -26 11 07.9   E12 – Siding Spring Survey MPS 418635
2012 03 23.454359 05 14 39.69 -26 06 21.7 16.6 V E12 – Siding Spring Survey MPS 418635
2012 03 23.463479 05 14 42.45 -26 01 29.6 16.8 V E12 – Siding Spring Survey MPS 418635
2012 03 23.472435 05 14 45.19 -25 56 43.6 16.8 V E12 – Siding Spring Survey MPS 418635
2012 03 23.480562 05 14 47.67 -25 52 21.6 16.9 V E12 – Siding Spring Survey MPS 418635
2012 03 23.480836 05 14 47.78 -25 52 12.9 16.8 V E12 – Siding Spring Survey MPS 418635
2012 03 23.481116 05 14 47.85 -25 52 03.9 16.9 V E12 – Siding Spring Survey MPS 418635
2012 03 23.481744 05 14 48.03 -25 51 43.9 17.0 V E12 – Siding Spring Survey MPS 418635
2012 03 23.482028 05 14 48.12 -25 51 34.4 16.8 V E12 – Siding Spring Survey MPS 418635
2012 03 23.482365 05 14 48.22 -25 51 24.3 16.9 V E12 – Siding Spring Survey MPS 418635
2012 03 23.531582 05 15 03.46 -25 24 58.3 16.8 V E12 – Siding Spring Survey MPS 418635
2012 03 23.531988 05 15 03.60 -25 24 45.0 16.8 V E12 – Siding Spring Survey MPS 418635
2012 03 23.532373 05 15 03.70 -25 24 32.5 16.9 V E12 – Siding Spring Survey MPS 418635
2012 03 23.532959 05 15 03.91 -25 24 13.6 16.8 V E12 – Siding Spring Survey MPS 418635
2012 03 23.533345 05 15 04.00 -25 24 01.0 17.0 V E12 – Siding Spring Survey MPS 418635
2012 03 23.533746 05 15 04.15 -25 23 48.5 16.7 V E12 – Siding Spring Survey MPS 418635
2012 03 24.00155 05 17 32.58 -21 06 08.4 16.8 V 807 – Cerro Tololo Observatory, La Serena MPS 418635
2012 03 24.00241 05 17 32.85 -21 05 38.6 17.1 V 807 – Cerro Tololo Observatory, La Serena MPS 418635
2012 03 24.00328 05 17 33.08 -21 05 09.4 17.0 V 807 – Cerro Tololo Observatory, La Serena MPS 418635
2012 03 24.07513 05 17 55.57 -20 25 26.6 16.0 R H36 – Sandlot Observatory, Scranton MPS 418635
2012 03 24.07833 05 17 56.51 -20 23 36.3 16.6 R H36 – Sandlot Observatory, Scranton MPS 418635
2012 03 24.08064 05 17 57.19 -20 22 17.6 16.3 R H36 – Sandlot Observatory, Scranton MPS 418635
2012 03 24.10675 05 18 05.27 -20 07 20.8 16.1 R H01 – Magdalena Ridge Observatory, Socorro MPS 418635
2012 03 24.11378 05 18 07.30 -20 03 19.6 16.4 R H01 – Magdalena Ridge Observatory, Socorro MPS 418635
2012 03 24.11389 05 18 07.52 -20 03 15.0 16.6 V G96 – Mt. Lemmon Survey MPS 418635
2012 03 24.11399 05 18 07.51 -20 03 11.0 16.6 R 854 – Sabino Canyon Observatory, Tucson MPS 418635
2012 03 24.11417 05 18 07.59 -20 03 05.6 16.6 V G96 – Mt. Lemmon Survey MPS 418635
2012 03 24.11429 05 18 07.62 -20 03 00.9 16.4 R 854 – Sabino Canyon Observatory, Tucson MPS 418635
2012 03 24.11459 05 18 07.71 -20 02 51.0 16.4 R 854 – Sabino Canyon Observatory, Tucson MPS 418635
2012 03 24.11475 05 18 07.74 -20 02 45.3 16.4 R 854 – Sabino Canyon Observatory, Tucson MPS 418635
2012 03 24.11656 05 18 08.27 -20 01 43.0 16.4 R 854 – Sabino Canyon Observatory, Tucson MPS 418635
2012 03 24.12354 05 18 10.16 -19 57 44.3 16.4 R H01 – Magdalena Ridge Observatory, Socorro MPS 418635
2012 03 24.12847 05 18 11.60 -19 54 54.2 16.5 R H01 – Magdalena Ridge Observatory, Socorro MPS 418635
2012 03 24.382201 05 19 30.50 -17 26 54.3 16.6 V E12 – Siding Spring Survey MPS 418635
2012 03 24.382479 05 19 30.60 -17 26 44.4 16.3 V E12 – Siding Spring Survey MPS 418635
2012 03 24.382752 05 19 30.67 -17 26 35.0 16.7 V E12 – Siding Spring Survey MPS 418635
2012 03 25.391609 05 24 35.532 -07 17 01.11 16.5 V E12 – Siding Spring Survey MPS 418635
2012 03 25.391968 05 24 35.631 -07 16 47.85 16.8 V E12 – Siding Spring Survey MPS 418635
2012 03 25.392297 05 24 35.718 -07 16 35.65 16.5 V E12 – Siding Spring Survey MPS 418635
2012 03 25.480176 05 25 00.46 -06 22 18.4 16.5 V E12 – Siding Spring Survey MPS 418635
2012 03 25.481668 05 25 00.89 -06 21 23.4 16.5 V E12 – Siding Spring Survey MPS 418635
2012 03 25.482113 05 25 01.01 -06 21 06.8 16.5 V E12 – Siding Spring Survey MPS 418635
2012 03 25.482574 05 25 01.16 -06 20 49.7 16.4 V E12 – Siding Spring Survey MPS 418635
2012 03 25.482999 05 25 01.25 -06 20 34.2 16.5 V E12 – Siding Spring Survey MPS 418635
2012 03 25.80837 05 26 38.86 -03 00 49.8 16.6 R A27 – Eridanus Observatory, Langelsheim MPS 418635
2012 03 25.81060 05 26 39.36 -02 59 26.1 15.8 R A27 – Eridanus Observatory, Langelsheim MPS 418635
2012 03 25.81225 05 26 39.91 -02 58 25.7 16.5 R A27 – Eridanus Observatory, Langelsheim MPS 418635
2012 03 25.81500 05 26 40.62 -02 56 43.9 15.3 R A27 – Eridanus Observatory, Langelsheim MPS 418635
2012 03 25.98403 05 27 30.33 -01 10 57.5 17.3 V 807 – Cerro Tololo Observatory, La Serena MPS 418635
2012 03 25.99573 05 27 33.49 -01 03 44.8 17.2 V 807 – Cerro Tololo Observatory, La Serena MPS 418635
2012 03 25.99926 05 27 34.45 -01 01 34.2 17.2 V 807 – Cerro Tololo Observatory, La Serena MPS 418635
2012 03 26.00012 05 27 34.69 -01 01 02.0 17.1 V 807 – Cerro Tololo Observatory, La Serena MPS 418635
2012 03 26.00276 05 27 35.40 -00 59 24.5 17.1 V 807 – Cerro Tololo Observatory, La Serena MPS 418635
2012 03 26.00448 05 27 35.86 -00 58 20.6 17.4 V 807 – Cerro Tololo Observatory, La Serena MPS 418635
2012 03 26.053799 05 27 50.44 -00 29 10.7 16.9 V H21 – Astronomical Research Observatory, Westfield MPS 418635
2012 03 26.055915 05 27 51.01 -00 27 52.6 16.9 V H21 – Astronomical Research Observatory, Westfield MPS 418635
2012 03 26.056972 05 27 51.30 -00 27 13.5 16.9 V H21 – Astronomical Research Observatory, Westfield MPS 418635
2012 03 26.058031 05 27 51.59 -00 26 34.5 16.9 V H21 – Astronomical Research Observatory, Westfield MPS 418635
2012 03 26.059088 05 27 51.88 -00 25 55.4 16.9 V H21 – Astronomical Research Observatory, Westfield MPS 418635
2012 03 26.060411 05 27 52.23 -00 25 06.4 17.0 V H21 – Astronomical Research Observatory, Westfield MPS 418635
2012 03 26.09440 05 28 01.64 -00 04 06.8 17.5 R H45 – Arkansas Sky Obs., Petit Jean Mountain South MPS 418635
2012 03 26.09508 05 28 01.83 -00 03 41.5 17.5 R H45 – Arkansas Sky Obs., Petit Jean Mountain South MPS 418635
2012 03 26.09576 05 28 02.03 -00 03 16.4 17.6 R H45 – Arkansas Sky Obs., Petit Jean Mountain South MPS 418635
2012 03 26.09632 05 28 02.18 -00 02 55.8 17.6 R H45 – Arkansas Sky Obs., Petit Jean Mountain South MPS 418635
2012 03 26.09697 05 28 02.38 -00 02 31.6 17.9 R H45 – Arkansas Sky Obs., Petit Jean Mountain South MPS 418635
2012 03 26.09770 05 28 02.55 -00 02 05.0 17.8 R H45 – Arkansas Sky Obs., Petit Jean Mountain South MPS 418635
2012 03 26.09810 05 28 02.66 -00 01 49.9 17.6 R H45 – Arkansas Sky Obs., Petit Jean Mountain South MPS 418635
2012 03 26.09870 05 28 02.84 -00 01 28.0 17.8 R H45 – Arkansas Sky Obs., Petit Jean Mountain South MPS 418635
2012 03 26.09911 05 28 02.95 -00 01 12.7 17.5 R H45 – Arkansas Sky Obs., Petit Jean Mountain South MPS 418635
2012 03 26.10008 05 28 03.24 -00 00 36.6 17.5 R H45 – Arkansas Sky Obs., Petit Jean Mountain South MPS 418635
2012 03 26.10080 05 28 03.40 -00 00 10.7 17.8 R H45 – Arkansas Sky Obs., Petit Jean Mountain South MPS 418635
2012 03 26.10137 05 28 03.54 +00 00 10.3 17.7 R H45 – Arkansas Sky Obs., Petit Jean Mountain South MPS 418635
2012 03 26.10198 05 28 03.72 +00 00 32.5 17.7 R H45 – Arkansas Sky Obs., Petit Jean Mountain South MPS 418635
2012 03 26.10341 05 28 04.12 +00 01 25.7 17.7 R H45 – Arkansas Sky Obs., Petit Jean Mountain South MPS 418635
2012 03 26.10444 05 28 04.39 +00 02 03.4 17.4 R H45 – Arkansas Sky Obs., Petit Jean Mountain South MPS 418635
2012 03 26.10527 05 28 04.63 +00 02 33.9 17.7 R H45 – Arkansas Sky Obs., Petit Jean Mountain South MPS 418635
2012 03 26.11569 05 28 08.01 +00 09 01.2 15.7 R H15 – ISON-NM Observatory, Mayhill MPS 418635
2012 03 26.13380 05 28 12.97 +00 20 08.7 16.0 R H15 – ISON-NM Observatory, Mayhill MPS 418635
2012 03 26.15082 05 28 17.63 +00 30 35.9 16.6 R H15 – ISON-NM Observatory, Mayhill MPS 418635
2012 03 26.389122 05 29 27.352 +02 57 30.44 16.7 V E12 – Siding Spring Survey MPS 418635
2012 03 26.389519 05 29 27.453 +02 57 45.01 16.7 V E12 – Siding Spring Survey MPS 418635
2012 03 26.389903 05 29 27.565 +02 57 59.16 16.9 V E12 – Siding Spring Survey MPS 418635
2012 03 26.81200 05 31 28.04 +07 10 39.5 16.9 V 639 – Dresden MPS 418635
2012 03 26.81501 05 31 28.86 +07 12 26.5 16.9 V 639 – Dresden MPS 418635
2012 03 26.81616 05 31 29.72 +07 13 07.8   J95 – Great Shefford MPS 418635
2012 03 26.81847 05 31 30.36 +07 14 29.7 16.7 R J95 – Great Shefford MPS 418635
2012 03 26.82075 05 31 30.42 +07 15 51.1 17.1 V 639 – Dresden MPS 418635
2012 03 26.82120 05 31 31.11 +07 16 07.5   J95 – Great Shefford MPS 418635
